owner,sensor,date,latitude,longitude,vertical_datum,mass_concentration_of_oxygen_in_sea_water,qcFlag 
DISL,ioos:station:DISL:MHPA:1,2017-11-01T00:30:00Z,30.6671,-87.9365,0.969,8.85,1111122 
DISL,ioos:station:DISL:MHPA:1,2017-11-01T01:30:00Z,30.6671,-87.9365,1.036,8.39,1111122 
DISL,ioos:station:DISL:MHPA:1,2017-11-01T02:30:00Z,30.6671,-87.9365,1.071,8.06,1111122 
DISL,ioos:station:DISL:MHPA:1,2017-11-01T03:30:00Z,30.6671,-87.9365,1.123,8.51,1111122 
DISL,ioos:station:DISL:MHPA:1,2017-11-01T04:30:00Z,30.6671,-87.9365,1.182,8.61,1111122 
DISL,ioos:station:DISL:MHPA:1,2017-11-01T05:30:00Z,30.6671,-87.9365,1.194,8.48,1111122 
DISL,ioos:station:DISL:MHPA:1,2017-11-01T06:30:00Z,30.6671,-87.9365,1.191,8.36,1111122 
DISL,ioos:station:DISL:MHPA:1,2017-11-01T07:30:00Z,30.6671,-87.9365,1.16,8.33,1111122 
DISL,ioos:station:DISL:MHPA:1,2017-11-01T08:30:00Z,30.6671,-87.9365,1.115,8.17,1111122 
DISL,ioos:station:DISL:MHPA:1,2017-11-01T09:30:00Z,30.6671,-87.9365,1.072,8.0,1111122 
DISL,ioos:station:DISL:MHPA:1,2017-11-01T10:30:00Z,30.6671,-87.9365,1.042,8.45,1111122 
DISL,ioos:station:DISL:MHPA:1,2017-11-01T11:30:00Z,30.6671,-87.9365,1.039,8.53,1111122 
DISL,ioos:station:DISL:MHPA:1,2017-11-01T12:30:00Z,30.6671,-87.9365,1.063,8.27,1111122 
DISL,ioos:station:DISL:MHPA:1,2017-11-01T13:30:00Z,30.6671,-87.9365,1.135,8.45,1111122 
DISL,ioos:station:DISL:MHPA:1,2017-11-01T14:30:00Z,30.6671,-87.9365,1.19,7.91,1111122 
DISL,ioos:station:DISL:MHPA:1,2017-11-01T15:30:00Z,30.6671,-87.9365,1.247,7.84,1111122 
DISL,ioos:station:DISL:MHPA:1,2017-11-01T16:30:00Z,30.6671,-87.9365,1.31,8.03,1111122 
DISL,ioos:station:DISL:MHPA:1,2017-11-01T17:30:00Z,30.6671,-87.9365,1.354,8.01,1111122 
DISL,ioos:station:DISL:MHPA:1,2017-11-01T18:30:00Z,30.6671,-87.9365,1.359,8.44,1111122 
DISL,ioos:station:DISL:MHPA:1,2017-11-01T19:30:00Z,30.6671,-87.9365,1.363,8.49,1111122 
DISL,ioos:station:DISL:MHPA:1,2017-11-01T20:30:00Z,30.6671,-87.9365,1.312,8.68,1111122 
DISL,ioos:station:DISL:MHPA:1,2017-11-01T21:30:00Z,30.6671,-87.9365,1.289,8.84,1111122 
DISL,ioos:station:DISL:MHPA:1,2017-11-01T22:30:00Z,30.6671,-87.9365,1.256,8.96,1111122 
DISL,ioos:station:DISL:MHPA:1,2017-11-01T23:30:00Z,30.6671,-87.9365,1.23,8.78,1111122 
DISL,ioos:station:DISL:MHPA:1,2017-11-02T00:30:00Z,30.6671,-87.9365,1.26,8.69,1111122 
DISL,ioos:station:DISL:MHPA:1,2017-11-02T01:30:00Z,30.6671,-87.9365,1.305,8.77,1111122 
DISL,ioos:station:DISL:MHPA:1,2017-11-02T02:30:00Z,30.6671,-87.9365,1.362,8.94,1111122 
DISL,ioos:station:DISL:MHPA:1,2017-11-02T03:30:00Z,30.6671,-87.9365,1.401,8.36,1111122 
DISL,ioos:station:DISL:MHPA:1,2017-11-02T04:30:00Z,30.6671,-87.9365,1.407,8.21,1111122 
DISL,ioos:station:DISL:MHPA:1,2017-11-02T05:30:00Z,30.6671,-87.9365,1.441,8.12,1111122 
DISL,ioos:station:DISL:MHPA:1,2017-11-02T06:30:00Z,30.6671,-87.9365,1.427,8.27,1111122 
DISL,ioos:station:DISL:MHPA:1,2017-11-02T07:30:00Z,30.6671,-87.9365,1.394,8.2,1111122 
DISL,ioos:station:DISL:MHPA:1,2017-11-02T08:30:00Z,30.6671,-87.9365,1.327,8.48,1111122 
DISL,ioos:station:DISL:MHPA:1,2017-11-02T09:30:00Z,30.6671,-87.9365,1.24,8.45,1111122 
DISL,ioos:station:DISL:MHPA:1,2017-11-02T10:30:00Z,30.6671,-87.9365,1.167,7.92,1111122 
DISL,ioos:station:DISL:MHPA:1,2017-11-02T11:30:00Z,30.6671,-87.9365,1.123,7.91,1111122 
DISL,ioos:station:DISL:MHPA:1,2017-11-02T12:30:00Z,30.6671,-87.9365,1.103,8.04,1111122 
DISL,ioos:station:DISL:MHPA:1,2017-11-02T13:30:00Z,30.6671,-87.9365,1.083,7.97,1111122 
DISL,ioos:station:DISL:MHPA:1,2017-11-02T14:30:00Z,30.6671,-87.9365,1.079,8.0,1111122 
DISL,ioos:station:DISL:MHPA:1,2017-11-02T15:30:00Z,30.6671,-87.9365,1.122,7.75,1111122 
DISL,ioos:station:DISL:MHPA:1,2017-11-02T16:30:00Z,30.6671,-87.9365,1.189,8.09,1111122 
DISL,ioos:station:DISL:MHPA:1,2017-11-02T17:30:00Z,30.6671,-87.9365,1.248,8.43,1111122 
DISL,ioos:station:DISL:MHPA:1,2017-11-02T18:30:00Z,30.6671,-87.9365,1.305,8.68,1111122 
DISL,ioos:station:DISL:MHPA:1,2017-11-02T19:30:00Z,30.6671,-87.9365,1.32,9.14,1111122 
DISL,ioos:station:DISL:MHPA:1,2017-11-02T20:30:00Z,30.6671,-87.9365,1.307,9.74,1111122 
DISL,ioos:station:DISL:MHPA:1,2017-11-02T21:30:00Z,30.6671,-87.9365,1.265,9.93,1111122 
DISL,ioos:station:DISL:MHPA:1,2017-11-02T22:30:00Z,30.6671,-87.9365,1.235,10.76,1111122 
DISL,ioos:station:DISL:MHPA:1,2017-11-02T23:30:00Z,30.6671,-87.9365,1.203,10.03,1111122 
DISL,ioos:station:DISL:MHPA:1,2017-11-03T00:30:00Z,30.6671,-87.9365,1.21,9.08,1111122 
DISL,ioos:station:DISL:MHPA:1,2017-11-03T01:30:00Z,30.6671,-87.9365,1.241,8.73,1111122 
DISL,ioos:station:DISL:MHPA:1,2017-11-03T02:30:00Z,30.6671,-87.9365,1.29,8.77,1111122 
DISL,ioos:station:DISL:MHPA:1,2017-11-03T03:30:00Z,30.6671,-87.9365,1.323,8.77,1111122 
DISL,ioos:station:DISL:MHPA:1,2017-11-03T04:30:00Z,30.6671,-87.9365,1.358,8.75,1111122 
DISL,ioos:station:DISL:MHPA:1,2017-11-03T05:30:00Z,30.6671,-87.9365,1.358,8.59,1111122 
DISL,ioos:station:DISL:MHPA:1,2017-11-03T06:30:00Z,30.6671,-87.9365,1.344,8.31,1111122 
DISL,ioos:station:DISL:MHPA:1,2017-11-03T07:30:00Z,30.6671,-87.9365,1.302,8.03,1111122 
DISL,ioos:station:DISL:MHPA:1,2017-11-03T08:30:00Z,30.6671,-87.9365,1.217,7.67,1111122 
DISL,ioos:station:DISL:MHPA:1,2017-11-03T09:30:00Z,30.6671,-87.9365,1.137,7.87,1111122 
DISL,ioos:station:DISL:MHPA:1,2017-11-03T10:30:00Z,30.6671,-87.9365,1.06,7.63,1111122 
DISL,ioos:station:DISL:MHPA:1,2017-11-03T11:30:00Z,30.6671,-87.9365,1.01,7.47,1111122 
DISL,ioos:station:DISL:MHPA:1,2017-11-03T12:30:00Z,30.6671,-87.9365,0.971,7.36,1111122 
DISL,ioos:station:DISL:MHPA:1,2017-11-03T13:30:00Z,30.6671,-87.9365,0.967,7.28,1111122 
DISL,ioos:station:DISL:MHPA:1,2017-11-03T14:30:00Z,30.6671,-87.9365,0.988,7.39,1111122 
DISL,ioos:station:DISL:MHPA:1,2017-11-03T15:30:00Z,30.6671,-87.9365,1.012,7.88,1111122 
DISL,ioos:station:DISL:MHPA:1,2017-11-03T16:30:00Z,30.6671,-87.9365,1.064,8.32,1111122 
DISL,ioos:station:DISL:MHPA:1,2017-11-03T17:30:00Z,30.6671,-87.9365,1.122,7.97,1111122 
DISL,ioos:station:DISL:MHPA:1,2017-11-03T18:30:00Z,30.6671,-87.9365,1.161,7.96,1111122 
DISL,ioos:station:DISL:MHPA:1,2017-11-03T19:30:00Z,30.6671,-87.9365,1.201,8.32,1111122 
DISL,ioos:station:DISL:MHPA:1,2017-11-03T20:30:00Z,30.6671,-87.9365,1.197,9.42,1111122 
DISL,ioos:station:DISL:MHPA:1,2017-11-03T21:30:00Z,30.6671,-87.9365,1.213,9.22,1111122 
DISL,ioos:station:DISL:MHPA:1,2017-11-03T22:30:00Z,30.6671,-87.9365,1.22,9.57,1111122 
DISL,ioos:station:DISL:MHPA:1,2017-11-03T23:30:00Z,30.6671,-87.9365,1.227,9.78,1111122 
DISL,ioos:station:DISL:MHPA:1,2017-11-04T00:30:00Z,30.6671,-87.9365,1.236,9.76,1111122 
DISL,ioos:station:DISL:MHPA:1,2017-11-04T01:30:00Z,30.6671,-87.9365,1.273,9.49,1111122 
DISL,ioos:station:DISL:MHPA:1,2017-11-04T02:30:00Z,30.6671,-87.9365,1.316,9.42,1111122 
DISL,ioos:station:DISL:MHPA:1,2017-11-04T03:30:00Z,30.6671,-87.9365,1.37,8.94,1111122 
DISL,ioos:station:DISL:MHPA:1,2017-11-04T04:30:00Z,30.6671,-87.9365,1.401,8.77,1111122 
DISL,ioos:station:DISL:MHPA:1,2017-11-04T05:30:00Z,30.6671,-87.9365,1.373,8.32,1111122 
DISL,ioos:station:DISL:MHPA:1,2017-11-04T06:30:00Z,30.6671,-87.9365,1.343,8.12,1111122 
DISL,ioos:station:DISL:MHPA:1,2017-11-04T07:30:00Z,30.6671,-87.9365,1.284,7.66,1111122 
DISL,ioos:station:DISL:MHPA:1,2017-11-04T08:30:00Z,30.6671,-87.9365,1.191,7.96,1111122 
DISL,ioos:station:DISL:MHPA:1,2017-11-04T09:30:00Z,30.6671,-87.9365,1.098,7.58,1111122 
DISL,ioos:station:DISL:MHPA:1,2017-11-04T10:30:00Z,30.6671,-87.9365,1.016,7.29,1111122 
DISL,ioos:station:DISL:MHPA:1,2017-11-04T11:30:00Z,30.6671,-87.9365,0.946,6.68,1111122 
DISL,ioos:station:DISL:MHPA:1,2017-11-04T12:30:00Z,30.6671,-87.9365,0.896,6.74,1111122 
DISL,ioos:station:DISL:MHPA:1,2017-11-04T13:30:00Z,30.6671,-87.9365,0.885,6.95,1111122 
DISL,ioos:station:DISL:MHPA:1,2017-11-04T14:30:00Z,30.6671,-87.9365,0.863,7.28,1111122 
DISL,ioos:station:DISL:MHPA:1,2017-11-04T15:30:00Z,30.6671,-87.9365,0.871,6.9,1111122 
DISL,ioos:station:DISL:MHPA:1,2017-11-04T16:30:00Z,30.6671,-87.9365,0.875,8.11,1111122 
DISL,ioos:station:DISL:MHPA:1,2017-11-04T17:30:00Z,30.6671,-87.9365,0.919,9.02,1111122 
DISL,ioos:station:DISL:MHPA:1,2017-11-04T18:30:00Z,30.6671,-87.9365,0.965,9.43,1111122 
DISL,ioos:station:DISL:MHPA:1,2017-11-04T19:30:00Z,30.6671,-87.9365,1.048,8.53,1111122 
DISL,ioos:station:DISL:MHPA:1,2017-11-04T20:30:00Z,30.6671,-87.9365,1.095,9.78,1111122 
DISL,ioos:station:DISL:MHPA:1,2017-11-04T21:30:00Z,30.6671,-87.9365,1.121,10.05,1111122 
DISL,ioos:station:DISL:MHPA:1,2017-11-04T22:30:00Z,30.6671,-87.9365,1.141,10.24,1111122 
DISL,ioos:station:DISL:MHPA:1,2017-11-04T23:30:00Z,30.6671,-87.9365,1.17,10.07,1111122 
DISL,ioos:station:DISL:MHPA:1,2017-11-05T00:30:00Z,30.6671,-87.9365,1.196,9.6,1111122 
DISL,ioos:station:DISL:MHPA:1,2017-11-05T01:30:00Z,30.6671,-87.9365,1.24,9.45,1111122 
DISL,ioos:station:DISL:MHPA:1,2017-11-05T02:30:00Z,30.6671,-87.9365,1.294,8.92,1111122 
DISL,ioos:station:DISL:MHPA:1,2017-11-05T03:30:00Z,30.6671,-87.9365,1.361,8.8,1111122 
DISL,ioos:station:DISL:MHPA:1,2017-11-05T04:30:00Z,30.6671,-87.9365,1.398,8.58,1111122 
DISL,ioos:station:DISL:MHPA:1,2017-11-05T05:30:00Z,30.6671,-87.9365,1.395,8.44,1111122 
DISL,ioos:station:DISL:MHPA:1,2017-11-05T06:30:00Z,30.6671,-87.9365,1.359,8.19,1111122 
DISL,ioos:station:DISL:MHPA:1,2017-11-05T08:30:00Z,30.6671,-87.9365,1.234,8.09,1111122 
DISL,ioos:station:DISL:MHPA:1,2017-11-05T09:30:00Z,30.6671,-87.9365,1.136,7.81,1111122 
DISL,ioos:station:DISL:MHPA:1,2017-11-05T10:30:00Z,30.6671,-87.9365,1.048,8.01,1111122 
DISL,ioos:station:DISL:MHPA:1,2017-11-05T11:30:00Z,30.6671,-87.9365,0.98,7.48,1111122 
DISL,ioos:station:DISL:MHPA:1,2017-11-05T12:30:00Z,30.6671,-87.9365,0.914,7.2,1111122 
DISL,ioos:station:DISL:MHPA:1,2017-11-05T13:30:00Z,30.6671,-87.9365,0.868,6.57,1111122 
DISL,ioos:station:DISL:MHPA:1,2017-11-05T14:30:00Z,30.6671,-87.9365,0.819,6.74,1111122 
DISL,ioos:station:DISL:MHPA:1,2017-11-05T15:30:00Z,30.6671,-87.9365,0.81,6.98,1111122 
DISL,ioos:station:DISL:MHPA:1,2017-11-05T16:30:00Z,30.6671,-87.9365,0.787,7.14,1111122 
DISL,ioos:station:DISL:MHPA:1,2017-11-05T17:30:00Z,30.6671,-87.9365,0.786,8.24,1111122 
DISL,ioos:station:DISL:MHPA:1,2017-11-05T18:30:00Z,30.6671,-87.9365,0.811,8.2,1111122 
DISL,ioos:station:DISL:MHPA:1,2017-11-05T19:30:00Z,30.6671,-87.9365,0.879,10.12,1111122 
DISL,ioos:station:DISL:MHPA:1,2017-11-05T20:30:00Z,30.6671,-87.9365,1.0,10.39,1111122 
DISL,ioos:station:DISL:MHPA:1,2017-11-05T21:30:00Z,30.6671,-87.9365,1.069,10.47,1111122 
DISL,ioos:station:DISL:MHPA:1,2017-11-05T22:30:00Z,30.6671,-87.9365,1.113,10.23,1111122 
DISL,ioos:station:DISL:MHPA:1,2017-11-05T23:30:00Z,30.6671,-87.9365,1.139,10.03,1111122 
DISL,ioos:station:DISL:MHPA:1,2017-11-06T00:30:00Z,30.6671,-87.9365,1.182,9.72,1111122 
DISL,ioos:station:DISL:MHPA:1,2017-11-06T01:30:00Z,30.6671,-87.9365,1.265,9.27,1111122 
DISL,ioos:station:DISL:MHPA:1,2017-11-06T02:30:00Z,30.6671,-87.9365,1.348,8.87,1111122 
DISL,ioos:station:DISL:MHPA:1,2017-11-06T03:30:00Z,30.6671,-87.9365,1.414,8.7,1111122 
DISL,ioos:station:DISL:MHPA:1,2017-11-06T04:30:00Z,30.6671,-87.9365,1.463,8.93,1111122 
DISL,ioos:station:DISL:MHPA:1,2017-11-06T05:30:00Z,30.6671,-87.9365,1.486,8.63,1111122 
DISL,ioos:station:DISL:MHPA:1,2017-11-06T06:30:00Z,30.6671,-87.9365,1.455,8.56,1111122 
DISL,ioos:station:DISL:MHPA:1,2017-11-06T07:30:00Z,30.6671,-87.9365,1.404,8.37,1111122 
DISL,ioos:station:DISL:MHPA:1,2017-11-06T08:30:00Z,30.6671,-87.9365,1.32,8.22,1111122 
DISL,ioos:station:DISL:MHPA:1,2017-11-06T09:30:00Z,30.6671,-87.9365,1.232,7.74,1111122 
DISL,ioos:station:DISL:MHPA:1,2017-11-06T10:30:00Z,30.6671,-87.9365,1.144,6.92,1111122 
DISL,ioos:station:DISL:MHPA:1,2017-11-06T11:30:00Z,30.6671,-87.9365,1.075,7.07,1111122 
DISL,ioos:station:DISL:MHPA:1,2017-11-06T12:30:00Z,30.6671,-87.9365,0.988,6.82,1111122 
DISL,ioos:station:DISL:MHPA:1,2017-11-06T13:30:00Z,30.6671,-87.9365,0.919,7.06,1111122 
DISL,ioos:station:DISL:MHPA:1,2017-11-06T14:30:00Z,30.6671,-87.9365,0.849,6.98,1111122 
DISL,ioos:station:DISL:MHPA:1,2017-11-06T15:30:00Z,30.6671,-87.9365,0.794,6.74,1111122 
DISL,ioos:station:DISL:MHPA:1,2017-11-06T16:30:00Z,30.6671,-87.9365,0.735,7.5,1111122 
DISL,ioos:station:DISL:MHPA:1,2017-11-06T17:30:00Z,30.6671,-87.9365,0.685,8.55,1111122 
DISL,ioos:station:DISL:MHPA:1,2017-11-06T18:30:00Z,30.6671,-87.9365,0.678,8.77,1111122 
DISL,ioos:station:DISL:MHPA:1,2017-11-06T19:30:00Z,30.6671,-87.9365,0.703,9.64,1111122 
DISL,ioos:station:DISL:MHPA:1,2017-11-06T20:30:00Z,30.6671,-87.9365,0.784,9.41,1111122 
DISL,ioos:station:DISL:MHPA:1,2017-11-06T21:30:00Z,30.6671,-87.9365,0.894,9.55,1111122 
DISL,ioos:station:DISL:MHPA:1,2017-11-06T22:30:00Z,30.6671,-87.9365,0.97,9.53,1111122 
DISL,ioos:station:DISL:MHPA:1,2017-11-06T23:30:00Z,30.6671,-87.9365,1.045,9.17,1111122 
DISL,ioos:station:DISL:MHPA:1,2017-11-07T00:30:00Z,30.6671,-87.9365,1.101,8.92,1111122 
DISL,ioos:station:DISL:MHPA:1,2017-11-07T01:30:00Z,30.6671,-87.9365,1.167,9.05,1111122 
DISL,ioos:station:DISL:MHPA:1,2017-11-07T02:30:00Z,30.6671,-87.9365,1.247,8.99,1111122 
DISL,ioos:station:DISL:MHPA:1,2017-11-07T03:30:00Z,30.6671,-87.9365,1.316,9.18,1111122 
DISL,ioos:station:DISL:MHPA:1,2017-11-07T04:30:00Z,30.6671,-87.9365,1.38,8.93,1111122 
DISL,ioos:station:DISL:MHPA:1,2017-11-07T05:30:00Z,30.6671,-87.9365,1.419,8.71,1111122 
DISL,ioos:station:DISL:MHPA:1,2017-11-07T06:30:00Z,30.6671,-87.9365,1.424,7.69,1111122 
DISL,ioos:station:DISL:MHPA:1,2017-11-07T07:00:00Z,30.6671,-87.9365,1.414,7.63,1111122 
DISL,ioos:station:DISL:MHPA:1,2017-11-07T08:30:00Z,30.6671,-87.9365,1.345,7.53,1111122 
DISL,ioos:station:DISL:MHPA:1,2017-11-07T09:30:00Z,30.6671,-87.9365,1.276,8.01,1111122 
DISL,ioos:station:DISL:MHPA:1,2017-11-07T10:30:00Z,30.6671,-87.9365,1.193,8.43,1111122 
DISL,ioos:station:DISL:MHPA:1,2017-11-07T11:30:00Z,30.6671,-87.9365,1.109,6.81,1111122 
DISL,ioos:station:DISL:MHPA:1,2017-11-07T12:30:00Z,30.6671,-87.9365,1.041,6.86,1111122 
DISL,ioos:station:DISL:MHPA:1,2017-11-07T13:30:00Z,30.6671,-87.9365,0.966,6.48,1111122 
DISL,ioos:station:DISL:MHPA:1,2017-11-07T14:30:00Z,30.6671,-87.9365,0.911,6.42,1111122 
DISL,ioos:station:DISL:MHPA:1,2017-11-07T15:30:00Z,30.6671,-87.9365,0.838,6.33,1111122 
DISL,ioos:station:DISL:MHPA:1,2017-11-07T16:30:00Z,30.6671,-87.9365,0.794,6.64,1111122 
DISL,ioos:station:DISL:MHPA:1,2017-11-07T17:30:00Z,30.6671,-87.9365,0.718,7.67,1111122 
DISL,ioos:station:DISL:MHPA:1,2017-11-07T18:30:00Z,30.6671,-87.9365,0.654,8.62,1111122 
DISL,ioos:station:DISL:MHPA:1,2017-11-07T19:30:00Z,30.6671,-87.9365,0.646,8.41,1111122 
DISL,ioos:station:DISL:MHPA:1,2017-11-07T20:30:00Z,30.6671,-87.9365,0.679,9.4,1111122 
DISL,ioos:station:DISL:MHPA:1,2017-11-07T21:30:00Z,30.6671,-87.9365,0.776,9.34,1111122 
DISL,ioos:station:DISL:MHPA:1,2017-11-07T22:30:00Z,30.6671,-87.9365,0.872,9.26,1111122 
DISL,ioos:station:DISL:MHPA:1,2017-11-07T23:30:00Z,30.6671,-87.9365,0.97,9.13,1111122 
DISL,ioos:station:DISL:MHPA:1,2017-11-08T00:30:00Z,30.6671,-87.9365,1.049,9.47,1111122 
DISL,ioos:station:DISL:MHPA:1,2017-11-08T01:30:00Z,30.6671,-87.9365,1.097,8.57,1111122 
DISL,ioos:station:DISL:MHPA:1,2017-11-08T02:30:00Z,30.6671,-87.9365,1.156,8.79,1111122 
DISL,ioos:station:DISL:MHPA:1,2017-11-08T03:30:00Z,30.6671,-87.9365,1.237,8.64,1111122 
DISL,ioos:station:DISL:MHPA:1,2017-11-08T05:30:00Z,30.6671,-87.9365,1.356,8.26,1111122 
DISL,ioos:station:DISL:MHPA:1,2017-11-08T06:30:00Z,30.6671,-87.9365,1.393,8.06,1111122 
DISL,ioos:station:DISL:MHPA:1,2017-11-08T07:30:00Z,30.6671,-87.9365,1.388,7.81,1111122 
DISL,ioos:station:DISL:MHPA:1,2017-11-08T08:30:00Z,30.6671,-87.9365,1.357,7.84,1111122 
DISL,ioos:station:DISL:MHPA:1,2017-11-08T09:30:00Z,30.6671,-87.9365,1.291,7.84,1111122 
DISL,ioos:station:DISL:MHPA:1,2017-11-08T10:30:00Z,30.6671,-87.9365,1.223,8.23,1111122 
DISL,ioos:station:DISL:MHPA:1,2017-11-08T11:30:00Z,30.6671,-87.9365,1.147,7.06,1111122 
DISL,ioos:station:DISL:MHPA:1,2017-11-08T12:30:00Z,30.6671,-87.9365,1.085,7.33,1111122 
DISL,ioos:station:DISL:MHPA:1,2017-11-08T13:30:00Z,30.6671,-87.9365,1.001,7.23,1111122 
DISL,ioos:station:DISL:MHPA:1,2017-11-08T14:30:00Z,30.6671,-87.9365,0.932,6.81,1111122 
DISL,ioos:station:DISL:MHPA:1,2017-11-08T15:30:00Z,30.6671,-87.9365,0.864,6.42,1111122 
DISL,ioos:station:DISL:MHPA:1,2017-11-08T16:30:00Z,30.6671,-87.9365,0.799,6.29,1111122 
DISL,ioos:station:DISL:MHPA:1,2017-11-08T17:30:00Z,30.6671,-87.9365,0.753,6.74,1111122 
DISL,ioos:station:DISL:MHPA:1,2017-11-08T18:30:00Z,30.6671,-87.9365,0.7,6.54,1111122 
DISL,ioos:station:DISL:MHPA:1,2017-11-08T19:30:00Z,30.6671,-87.9365,0.638,6.3,1111122 
DISL,ioos:station:DISL:MHPA:1,2017-11-08T20:30:00Z,30.6671,-87.9365,0.599,7.19,1111122 
DISL,ioos:station:DISL:MHPA:1,2017-11-08T21:30:00Z,30.6671,-87.9365,0.595,7.47,1111122 
DISL,ioos:station:DISL:MHPA:1,2017-11-08T22:30:00Z,30.6671,-87.9365,0.632,7.03,1111122 
DISL,ioos:station:DISL:MHPA:1,2017-11-08T23:30:00Z,30.6671,-87.9365,0.744,7.45,1111122 
DISL,ioos:station:DISL:MHPA:1,2017-11-09T00:30:00Z,30.6671,-87.9365,0.841,7.44,1111122 
DISL,ioos:station:DISL:MHPA:1,2017-11-09T01:30:00Z,30.6671,-87.9365,0.883,6.93,1111122 
DISL,ioos:station:DISL:MHPA:1,2017-11-09T02:30:00Z,30.6671,-87.9365,0.961,7.11,1111122 
DISL,ioos:station:DISL:MHPA:1,2017-11-09T03:30:00Z,30.6671,-87.9365,1.04,7.02,1111122 
DISL,ioos:station:DISL:MHPA:1,2017-11-09T04:30:00Z,30.6671,-87.9365,1.098,7.46,1111122 
DISL,ioos:station:DISL:MHPA:1,2017-11-09T05:30:00Z,30.6671,-87.9365,1.175,7.46,1111122 
DISL,ioos:station:DISL:MHPA:1,2017-11-09T06:30:00Z,30.6671,-87.9365,1.259,7.3,1111122 
DISL,ioos:station:DISL:MHPA:1,2017-11-09T07:30:00Z,30.6671,-87.9365,1.318,7.1,1111122 
DISL,ioos:station:DISL:MHPA:1,2017-11-09T08:30:00Z,30.6671,-87.9365,1.345,7.13,1111122 
DISL,ioos:station:DISL:MHPA:1,2017-11-09T09:30:00Z,30.6671,-87.9365,1.327,7.13,1111122 
DISL,ioos:station:DISL:MHPA:1,2017-11-09T10:30:00Z,30.6671,-87.9365,1.263,7.25,1111122 
DISL,ioos:station:DISL:MHPA:1,2017-11-09T11:30:00Z,30.6671,-87.9365,1.19,7.29,1111122 
DISL,ioos:station:DISL:MHPA:1,2017-11-09T12:30:00Z,30.6671,-87.9365,1.132,7.2,1111122 
DISL,ioos:station:DISL:MHPA:1,2017-11-09T13:30:00Z,30.6671,-87.9365,1.046,7.17,1111122 
DISL,ioos:station:DISL:MHPA:1,2017-11-09T14:30:00Z,30.6671,-87.9365,0.967,7.21,1111122 
DISL,ioos:station:DISL:MHPA:1,2017-11-09T15:30:00Z,30.6671,-87.9365,0.864,7.16,1111122 
DISL,ioos:station:DISL:MHPA:1,2017-11-09T16:30:00Z,30.6671,-87.9365,0.811,7.06,1111122 
DISL,ioos:station:DISL:MHPA:1,2017-11-09T17:30:00Z,30.6671,-87.9365,0.763,7.11,1111122 
DISL,ioos:station:DISL:MHPA:1,2017-11-09T18:30:00Z,30.6671,-87.9365,0.706,7.92,1111122 
DISL,ioos:station:DISL:MHPA:1,2017-11-09T19:30:00Z,30.6671,-87.9365,0.671,8.19,1111122 
DISL,ioos:station:DISL:MHPA:1,2017-11-09T20:30:00Z,30.6671,-87.9365,0.637,7.78,1111122 
DISL,ioos:station:DISL:MHPA:1,2017-11-09T21:30:00Z,30.6671,-87.9365,0.633,7.74,1111122 
DISL,ioos:station:DISL:MHPA:1,2017-11-09T22:30:00Z,30.6671,-87.9365,0.67,7.84,1111122 
DISL,ioos:station:DISL:MHPA:1,2017-11-09T23:30:00Z,30.6671,-87.9365,0.745,8.14,1111122 
DISL,ioos:station:DISL:MHPA:1,2017-11-10T00:30:00Z,30.6671,-87.9365,0.84,8.29,1111122 
DISL,ioos:station:DISL:MHPA:1,2017-11-10T01:30:00Z,30.6671,-87.9365,0.93,8.25,1111122 
DISL,ioos:station:DISL:MHPA:1,2017-11-10T02:30:00Z,30.6671,-87.9365,0.996,8.07,1111122 
DISL,ioos:station:DISL:MHPA:1,2017-11-10T03:30:00Z,30.6671,-87.9365,1.07,8.19,1111122 
DISL,ioos:station:DISL:MHPA:1,2017-11-10T04:30:00Z,30.6671,-87.9365,1.138,8.05,1111122 
DISL,ioos:station:DISL:MHPA:1,2017-11-10T05:30:00Z,30.6671,-87.9365,1.198,7.82,1111122 
DISL,ioos:station:DISL:MHPA:1,2017-11-10T06:30:00Z,30.6671,-87.9365,1.279,7.91,1111122 
DISL,ioos:station:DISL:MHPA:1,2017-11-10T07:30:00Z,30.6671,-87.9365,1.316,7.94,1111122 
DISL,ioos:station:DISL:MHPA:1,2017-11-10T08:30:00Z,30.6671,-87.9365,1.419,8.19,1111122 
DISL,ioos:station:DISL:MHPA:1,2017-11-10T09:30:00Z,30.6671,-87.9365,1.486,8.05,1111122 
DISL,ioos:station:DISL:MHPA:1,2017-11-10T10:30:00Z,30.6671,-87.9365,1.507,8.16,1111122 
DISL,ioos:station:DISL:MHPA:1,2017-11-10T11:30:00Z,30.6671,-87.9365,1.524,8.25,1111122 
DISL,ioos:station:DISL:MHPA:1,2017-11-10T12:30:00Z,30.6671,-87.9365,1.475,8.06,1111122 
DISL,ioos:station:DISL:MHPA:1,2017-11-10T13:30:00Z,30.6671,-87.9365,1.388,8.19,1111122 
DISL,ioos:station:DISL:MHPA:1,2017-11-10T14:30:00Z,30.6671,-87.9365,1.3,7.84,1111122 
DISL,ioos:station:DISL:MHPA:1,2017-11-10T15:30:00Z,30.6671,-87.9365,1.199,8.13,1111122 
DISL,ioos:station:DISL:MHPA:1,2017-11-10T16:30:00Z,30.6671,-87.9365,1.151,8.03,1111122 
DISL,ioos:station:DISL:MHPA:1,2017-11-10T17:30:00Z,30.6671,-87.9365,1.072,8.19,1111122 
DISL,ioos:station:DISL:MHPA:1,2017-11-10T18:30:00Z,30.6671,-87.9365,0.995,8.2,1111122 
DISL,ioos:station:DISL:MHPA:1,2017-11-10T19:30:00Z,30.6671,-87.9365,0.944,8.18,1111122 
DISL,ioos:station:DISL:MHPA:1,2017-11-10T20:30:00Z,30.6671,-87.9365,0.888,8.65,1111122 
DISL,ioos:station:DISL:MHPA:1,2017-11-10T21:30:00Z,30.6671,-87.9365,0.845,8.85,1111122 
DISL,ioos:station:DISL:MHPA:1,2017-11-10T22:30:00Z,30.6671,-87.9365,0.847,8.87,1111122 
DISL,ioos:station:DISL:MHPA:1,2017-11-10T23:30:00Z,30.6671,-87.9365,0.881,8.94,1111122 
DISL,ioos:station:DISL:MHPA:1,2017-11-11T00:30:00Z,30.6671,-87.9365,0.943,8.71,1111122 
DISL,ioos:station:DISL:MHPA:1,2017-11-11T01:30:00Z,30.6671,-87.9365,1.006,8.74,1111122 
DISL,ioos:station:DISL:MHPA:1,2017-11-11T02:30:00Z,30.6671,-87.9365,1.074,8.79,1111122 
DISL,ioos:station:DISL:MHPA:1,2017-11-11T03:30:00Z,30.6671,-87.9365,1.152,8.99,1111122 
DISL,ioos:station:DISL:MHPA:1,2017-11-11T04:30:00Z,30.6671,-87.9365,1.185,8.86,1111122 
DISL,ioos:station:DISL:MHPA:1,2017-11-11T05:30:00Z,30.6671,-87.9365,1.237,8.72,1111122 
DISL,ioos:station:DISL:MHPA:1,2017-11-11T06:30:00Z,30.6671,-87.9365,1.272,8.28,1111122 
DISL,ioos:station:DISL:MHPA:1,2017-11-11T07:30:00Z,30.6671,-87.9365,1.313,8.5,1111122 
DISL,ioos:station:DISL:MHPA:1,2017-11-11T08:30:00Z,30.6671,-87.9365,1.355,8.76,1111122 
DISL,ioos:station:DISL:MHPA:1,2017-11-11T09:30:00Z,30.6671,-87.9365,1.393,8.87,1111122 
DISL,ioos:station:DISL:MHPA:1,2017-11-11T10:30:00Z,30.6671,-87.9365,1.427,8.76,1111122 
DISL,ioos:station:DISL:MHPA:1,2017-11-11T11:30:00Z,30.6671,-87.9365,1.419,8.78,1111122 
DISL,ioos:station:DISL:MHPA:1,2017-11-11T12:30:00Z,30.6671,-87.9365,1.404,8.7,1111122 
DISL,ioos:station:DISL:MHPA:1,2017-11-11T13:30:00Z,30.6671,-87.9365,1.369,8.7,1111122 
DISL,ioos:station:DISL:MHPA:1,2017-11-11T14:30:00Z,30.6671,-87.9365,1.398,8.82,1111122 
DISL,ioos:station:DISL:MHPA:1,2017-11-11T15:30:00Z,30.6671,-87.9365,1.34,8.7,1111122 
DISL,ioos:station:DISL:MHPA:1,2017-11-11T16:30:00Z,30.6671,-87.9365,1.334,8.9,1111122 
DISL,ioos:station:DISL:MHPA:1,2017-11-11T17:30:00Z,30.6671,-87.9365,1.302,9.02,1111122 
DISL,ioos:station:DISL:MHPA:1,2017-11-11T18:30:00Z,30.6671,-87.9365,1.237,9.09,1111122 
DISL,ioos:station:DISL:MHPA:1,2017-11-11T19:30:00Z,30.6671,-87.9365,1.214,9.24,1111122 
DISL,ioos:station:DISL:MHPA:1,2017-11-11T20:30:00Z,30.6671,-87.9365,1.183,9.18,1111122 
DISL,ioos:station:DISL:MHPA:1,2017-11-11T21:30:00Z,30.6671,-87.9365,1.185,9.27,1111122 
DISL,ioos:station:DISL:MHPA:1,2017-11-11T22:30:00Z,30.6671,-87.9365,1.201,9.37,1111122 
DISL,ioos:station:DISL:MHPA:1,2017-11-11T23:30:00Z,30.6671,-87.9365,1.224,9.21,1111122 
DISL,ioos:station:DISL:MHPA:1,2017-11-12T00:30:00Z,30.6671,-87.9365,1.263,9.3,1111122 
DISL,ioos:station:DISL:MHPA:1,2017-11-12T01:30:00Z,30.6671,-87.9365,1.318,9.28,1111122 
DISL,ioos:station:DISL:MHPA:1,2017-11-12T02:30:00Z,30.6671,-87.9365,1.363,9.03,1111122 
DISL,ioos:station:DISL:MHPA:1,2017-11-12T03:30:00Z,30.6671,-87.9365,1.391,9.01,1111122 
DISL,ioos:station:DISL:MHPA:1,2017-11-12T04:30:00Z,30.6671,-87.9365,1.443,9.1,1111122 
DISL,ioos:station:DISL:MHPA:1,2017-11-12T05:30:00Z,30.6671,-87.9365,1.464,9.22,1111122 
DISL,ioos:station:DISL:MHPA:1,2017-11-12T06:30:00Z,30.6671,-87.9365,1.435,9.05,1111122 
DISL,ioos:station:DISL:MHPA:1,2017-11-12T07:30:00Z,30.6671,-87.9365,1.438,9.01,1111122 
DISL,ioos:station:DISL:MHPA:1,2017-11-12T08:30:00Z,30.6671,-87.9365,1.403,8.64,1111122 
DISL,ioos:station:DISL:MHPA:1,2017-11-12T09:30:00Z,30.6671,-87.9365,1.437,7.6,1111122 